Time,TemperatureF,DewpointF,PressureIn,WindDirection,WindDirectionDegrees,WindSpeedMPH,WindSpeedGustMPH,Humidity,HourlyPrecipIn,Conditions,Clouds,dailyrainin,SoftwareType,DateUTC
2013-04-01 00:00:00,52.5,52.0,30.02,NNW,337,0.0,0.0,98,0.00,,,0.00,Wunderground v.1.15,2013-04-01 07:00:00,
2013-04-01 00:10:00,52.4,51.9,30.02,NNW,337,0.0,0.0,98,0.00,,,0.00,Wunderground v.1.15,2013-04-01 07:10:00,
2013-04-01 00:20:00,52.4,51.9,30.02,NNW,337,0.0,0.0,98,0.00,,,0.00,Wunderground v.1.15,2013-04-01 07:20:00,
2013-04-01 00:30:00,52.3,51.8,30.02,NNW,337,0.0,0.0,98,0.00,,,0.00,Wunderground v.1.15,2013-04-01 07:30:00,
2013-04-01 00:35:00,52.3,51.8,30.02,NNW,332,0.0,0.0,98,0.00,,,0.00,Wunderground v.1.15,2013-04-01 07:35:00,
2013-04-01 00:45:00,52.0,51.5,30.02,NNW,332,0.0,0.0,98,0.00,,,0.00,Wunderground v.1.15,2013-04-01 07:45:00,
2013-04-01 00:55:00,51.9,51.4,30.02,NNW,332,0.0,0.0,98,0.00,,,0.00,Wunderground v.1.15,2013-04-01 07:55:00,
2013-04-01 01:05:00,51.9,51.4,30.02,NNW,332,0.0,0.0,98,0.00,,,0.00,Wunderground v.1.15,2013-04-01 08:05:00,
2013-04-01 01:10:00,51.9,51.4,30.02,NNW,332,0.0,0.0,98,0.00,,,0.00,Wunderground v.1.15,2013-04-01 08:10:00,
2013-04-01 01:15:00,51.9,51.4,30.02,NNW,332,0.0,0.0,98,0.00,,,0.00,Wunderground v.1.15,2013-04-01 08:15:00,
2013-04-01 01:25:00,51.8,51.3,30.03,NNW,332,0.0,0.0,98,0.00,,,0.00,Wunderground v.1.15,2013-04-01 08:25:00,
2013-04-01 01:35:00,51.5,51.0,30.03,NNW,332,0.0,0.0,98,0.00,,,0.00,Wunderground v.1.15,2013-04-01 08:35:00,
2013-04-01 01:45:00,51.3,50.8,30.03,WNW,292,0.0,0.0,98,0.00,,,0.00,Wunderground v.1.15,2013-04-01 08:45:00,
2013-04-01 01:50:00,51.3,50.8,30.03,WNW,286,0.0,0.0,98,0.00,,,0.00,Wunderground v.1.15,2013-04-01 08:50:00,
2013-04-01 02:05:00,51.1,50.6,30.03,West,259,0.0,0.0,98,0.00,,,0.00,Wunderground v.1.15,2013-04-01 09:05:00,
2013-04-01 02:15:00,51.0,50.5,30.04,NW,306,0.0,0.0,98,0.00,,,0.00,Wunderground v.1.15,2013-04-01 09:15:00,
2013-04-01 02:30:00,50.9,50.4,30.04,NW,306,0.0,0.0,98,0.00,,,0.00,Wunderground v.1.15,2013-04-01 09:30:00,
2013-04-01 02:35:00,50.8,50.3,30.04,NW,304,0.0,0.0,98,0.00,,,0.00,Wunderground v.1.15,2013-04-01 09:35:00,
2013-04-01 02:45:00,50.7,50.2,30.03,NW,304,0.0,1.0,98,0.00,,,0.00,Wunderground v.1.15,2013-04-01 09:45:00,
2013-04-01 02:55:00,50.7,50.2,30.04,North,360,0.0,1.0,98,0.00,,,0.00,Wunderground v.1.15,2013-04-01 09:55:00,
2013-04-01 03:05:00,50.6,50.1,30.03,North,5,0.0,0.0,98,0.00,,,0.00,Wunderground v.1.15,2013-04-01 10:05:00,
2013-04-01 03:15:00,50.6,50.1,30.04,NNW,328,0.0,0.0,98,0.00,,,0.00,Wunderground v.1.15,2013-04-01 10:15:00,
2013-04-01 03:25:00,50.6,50.1,30.04,North,360,0.0,0.0,98,0.00,,,0.00,Wunderground v.1.15,2013-04-01 10:25:00,
2013-04-01 03:30:00,50.6,50.1,30.04,North,360,0.0,0.0,98,0.00,,,0.00,Wunderground v.1.15,2013-04-01 10:30:00,
2013-04-01 03:40:00,50.6,50.1,30.04,NW,315,0.0,2.0,98,0.00,,,0.00,Wunderground v.1.15,2013-04-01 10:40:00,
2013-04-01 03:50:00,50.6,50.1,30.04,NE,44,1.0,2.0,98,0.00,,,0.00,Wunderground v.1.15,2013-04-01 10:50:00,
2013-04-01 04:05:00,50.6,50.1,30.04,NE,44,0.0,0.0,98,0.00,,,0.00,Wunderground v.1.15,2013-04-01 11:05:00,
2013-04-01 04:16:00,50.7,50.2,30.04,NE,44,0.0,0.0,98,0.00,,,0.00,Wunderground v.1.15,2013-04-01 11:16:00,
2013-04-01 04:25:00,50.6,50.1,30.04,NE,45,0.0,3.0,98,0.00,,,0.00,Wunderground v.1.15,2013-04-01 11:25:00,
2013-04-01 04:35:00,50.6,50.1,30.04,North,350,0.0,1.0,98,0.00,,,0.00,Wunderground v.1.15,2013-04-01 11:35:00,
2013-04-01 04:45:00,50.6,50.1,30.05,NW,306,0.0,0.0,98,0.00,,,0.00,Wunderground v.1.15,2013-04-01 11:45:00,
2013-04-01 04:55:00,50.6,50.1,30.05,NW,306,0.0,0.0,98,0.00,,,0.00,Wunderground v.1.15,2013-04-01 11:55:00,
2013-04-01 05:05:00,50.5,50.0,30.05,NNW,340,0.0,0.0,98,0.00,,,0.00,Wunderground v.1.15,2013-04-01 12:05:00,
2013-04-01 05:10:00,50.5,50.0,30.05,NNW,340,0.0,0.0,98,0.00,,,0.00,Wunderground v.1.15,2013-04-01 12:10:00,
2013-04-01 05:15:00,50.5,50.0,30.05,NNW,340,0.0,0.0,98,0.00,,,0.00,Wunderground v.1.15,2013-04-01 12:15:00,
2013-04-01 05:25:00,50.4,49.9,30.05,North,350,0.0,0.0,98,0.00,,,0.00,Wunderground v.1.15,2013-04-01 12:25:00,
2013-04-01 05:40:00,50.4,49.9,30.06,NNW,343,0.0,0.0,98,0.00,,,0.00,Wunderground v.1.15,2013-04-01 12:40:00,
2013-04-01 05:50:00,50.3,49.8,30.06,NNW,343,0.0,0.0,98,0.00,,,0.00,Wunderground v.1.15,2013-04-01 12:50:00,
2013-04-01 06:05:00,50.3,49.8,30.06,NNW,343,0.0,0.0,98,0.00,,,0.00,Wunderground v.1.15,2013-04-01 13:05:00,
2013-04-01 06:10:00,50.3,50.0,30.06,NNW,343,0.0,0.0,99,0.00,,,0.00,Wunderground v.1.15,2013-04-01 13:10:00,
2013-04-01 06:20:00,50.3,50.0,30.06,NNW,343,0.0,0.0,99,0.00,,,0.00,Wunderground v.1.15,2013-04-01 13:20:00,
2013-04-01 06:30:00,50.3,50.0,30.07,NNW,343,0.0,0.0,99,0.00,,,0.00,Wunderground v.1.15,2013-04-01 13:30:00,
2013-04-01 06:40:00,50.3,50.0,30.07,NNW,343,0.0,0.0,99,0.00,,,0.00,Wunderground v.1.15,2013-04-01 13:40:00,
2013-04-01 06:50:00,50.3,50.0,30.07,NNW,343,0.0,0.0,99,0.00,,,0.00,Wunderground v.1.15,2013-04-01 13:50:00,
2013-04-01 07:05:00,50.4,50.1,30.07,North,350,0.0,0.0,99,0.00,,,0.00,Wunderground v.1.15,2013-04-01 14:05:00,
2013-04-01 07:10:00,50.4,50.1,30.07,North,350,0.0,0.0,99,0.00,,,0.00,Wunderground v.1.15,2013-04-01 14:10:00,
2013-04-01 07:16:00,50.3,50.0,30.07,North,350,0.0,0.0,99,0.00,,,0.00,Wunderground v.1.15,2013-04-01 14:16:00,
2013-04-01 07:21:00,50.3,50.0,30.07,NNW,342,0.0,0.0,99,0.00,,,0.00,Wunderground v.1.15,2013-04-01 14:21:00,
2013-04-01 07:30:00,50.3,50.0,30.07,NNW,339,0.0,0.0,99,0.00,,,0.01,Wunderground v.1.15,2013-04-01 14:30:00,
2013-04-01 07:40:00,50.3,49.8,30.07,West,270,1.0,1.0,98,0.00,,,0.01,Wunderground v.1.15,2013-04-01 14:40:00,
2013-04-01 07:50:00,50.3,49.8,30.08,WNW,301,1.0,1.0,98,0.00,,,0.01,Wunderground v.1.15,2013-04-01 14:50:00,
2013-04-01 08:05:00,50.4,49.9,30.08,SE,125,0.0,0.0,98,0.00,,,0.01,Wunderground v.1.15,2013-04-01 15:05:00,
2013-04-01 08:10:00,50.5,50.0,30.08,SE,124,0.0,0.0,98,0.00,,,0.01,Wunderground v.1.15,2013-04-01 15:10:00,
2013-04-01 08:20:00,50.6,50.1,30.08,SE,125,0.0,0.0,98,0.00,,,0.01,Wunderground v.1.15,2013-04-01 15:20:00,
2013-04-01 08:30:00,50.7,50.2,30.09,SE,125,0.0,0.0,98,0.00,,,0.01,Wunderground v.1.15,2013-04-01 15:30:00,
2013-04-01 08:40:00,50.8,50.3,30.09,SE,124,0.0,0.0,98,0.00,,,0.01,Wunderground v.1.15,2013-04-01 15:40:00,
2013-04-01 08:50:00,50.8,50.3,30.09,NNE,33,0.0,0.0,98,0.00,,,0.01,Wunderground v.1.15,2013-04-01 15:50:00,
2013-04-01 09:10:00,50.8,50.3,30.10,NW,320,0.0,0.0,98,0.00,,,0.01,Wunderground v.1.15,2013-04-01 16:10:00,
2013-04-01 09:20:00,50.8,50.3,30.10,NNW,333,0.0,0.0,98,0.00,,,0.01,Wunderground v.1.15,2013-04-01 16:20:00,
2013-04-01 09:30:00,51.0,50.5,30.10,NNW,332,0.0,0.0,98,0.00,,,0.01,Wunderground v.1.15,2013-04-01 16:30:00,
2013-04-01 09:35:00,51.0,50.5,30.10,North,5,0.0,0.0,98,0.00,,,0.01,Wunderground v.1.15,2013-04-01 16:35:00,
2013-04-01 09:45:00,51.3,50.8,30.11,NNE,28,0.0,0.0,98,0.00,,,0.01,Wunderground v.1.15,2013-04-01 16:45:00,
2013-04-01 09:55:00,51.3,50.8,30.11,NNE,28,0.0,0.0,98,0.00,,,0.01,Wunderground v.1.15,2013-04-01 16:55:00,
2013-04-01 10:10:00,51.5,51.0,30.12,North,355,0.0,0.0,98,0.00,,,0.01,Wunderground v.1.15,2013-04-01 17:10:00,
2013-04-01 10:20:00,51.6,51.1,30.12,NW,323,0.0,2.0,98,0.00,,,0.01,Wunderground v.1.15,2013-04-01 17:20:00,
2013-04-01 10:30:00,51.7,50.9,30.12,NNW,333,0.0,0.0,97,0.00,,,0.01,Wunderground v.1.15,2013-04-01 17:30:00,
2013-04-01 10:40:00,51.7,50.9,30.12,NW,308,0.0,0.0,97,0.00,,,0.01,Wunderground v.1.15,2013-04-01 17:40:00,
2013-04-01 10:45:00,51.8,51.0,30.12,NW,308,0.0,0.0,97,0.00,,,0.01,Wunderground v.1.15,2013-04-01 17:45:00,
2013-04-01 10:55:00,52.1,51.3,30.13,NNW,345,0.0,0.0,97,0.00,,,0.01,Wunderground v.1.15,2013-04-01 17:55:00,
2013-04-01 11:05:00,52.2,51.1,30.13,WNW,294,1.0,1.0,96,0.00,,,0.01,Wunderground v.1.15,2013-04-01 18:05:00,
2013-04-01 11:16:00,52.3,51.2,30.13,NW,306,1.0,1.0,96,0.00,,,0.01,Wunderground v.1.15,2013-04-01 18:16:00,
2013-04-01 11:25:00,52.5,51.4,30.13,NNW,331,1.0,1.0,96,0.00,,,0.01,Wunderground v.1.15,2013-04-01 18:25:00,
2013-04-01 11:35:00,52.6,51.5,30.14,NW,315,0.0,2.0,96,0.00,,,0.01,Wunderground v.1.15,2013-04-01 18:35:00,
2013-04-01 11:45:00,52.7,51.6,30.14,WNW,291,1.0,2.0,96,0.00,,,0.01,Wunderground v.1.15,2013-04-01 18:45:00,
2013-04-01 11:55:00,52.5,51.4,30.14,West,277,1.0,2.0,96,0.00,,,0.01,Wunderground v.1.15,2013-04-01 18:55:00,
2013-04-01 12:10:00,52.9,51.8,30.14,North,355,0.0,0.0,96,0.00,,,0.01,Wunderground v.1.15,2013-04-01 19:10:00,
2013-04-01 12:15:00,52.9,51.8,30.14,WNW,286,0.0,2.0,96,0.00,,,0.01,Wunderground v.1.15,2013-04-01 19:15:00,
2013-04-01 12:25:00,52.6,51.5,30.14,WNW,300,1.0,1.0,96,0.00,,,0.01,Wunderground v.1.15,2013-04-01 19:25:00,
2013-04-01 12:35:00,52.9,52.1,30.14,North,355,0.0,1.0,97,0.00,,,0.01,Wunderground v.1.15,2013-04-01 19:35:00,
2013-04-01 12:50:00,52.9,52.1,30.14,WNW,301,2.0,2.0,97,0.00,,,0.02,Wunderground v.1.15,2013-04-01 19:50:00,
2013-04-01 13:00:00,53.2,52.4,30.14,West,278,0.0,1.0,97,0.00,,,0.02,Wunderground v.1.15,2013-04-01 20:00:00,
2013-04-01 13:10:00,53.2,52.4,30.14,WNW,296,1.0,1.0,97,0.00,,,0.02,Wunderground v.1.15,2013-04-01 20:10:00,
2013-04-01 13:16:00,53.4,52.6,30.14,WNW,283,1.0,2.0,97,0.00,,,0.02,Wunderground v.1.15,2013-04-01 20:16:00,
2013-04-01 13:25:00,53.8,53.0,30.14,WNW,287,0.0,2.0,97,0.00,,,0.02,Wunderground v.1.15,2013-04-01 20:25:00,
2013-04-01 13:35:00,53.8,52.7,30.14,NW,315,2.0,2.0,96,0.00,,,0.02,Wunderground v.1.15,2013-04-01 20:35:00,
2013-04-01 13:45:00,54.0,52.6,30.14,NNW,342,2.0,3.0,95,0.00,,,0.02,Wunderground v.1.15,2013-04-01 20:45:00,
2013-04-01 14:05:00,54.1,52.7,30.14,NW,325,2.0,3.0,95,0.00,,,0.02,Wunderground v.1.15,2013-04-01 21:05:00,
2013-04-01 14:10:00,54.3,53.2,30.14,North,355,2.0,3.0,96,0.00,,,0.02,Wunderground v.1.15,2013-04-01 21:10:00,
2013-04-01 14:20:00,54.2,53.1,30.14,NW,320,2.0,2.0,96,0.00,,,0.02,Wunderground v.1.15,2013-04-01 21:20:00,
2013-04-01 14:30:00,54.5,53.4,30.14,North,355,0.0,1.0,96,0.00,,,0.02,Wunderground v.1.15,2013-04-01 21:30:00,
2013-04-01 14:40:00,54.6,53.5,30.14,North,5,0.0,0.0,96,0.00,,,0.02,Wunderground v.1.15,2013-04-01 21:40:00,
2013-04-01 14:55:00,54.5,53.1,30.14,WNW,293,0.0,0.0,95,0.00,,,0.02,Wunderground v.1.15,2013-04-01 21:55:00,
2013-04-01 15:00:00,54.6,53.2,30.14,NNW,331,0.0,0.0,95,0.00,,,0.02,Wunderground v.1.15,2013-04-01 22:00:00,
2013-04-01 15:11:00,54.6,53.2,30.14,West,261,0.0,0.0,95,0.00,,,0.02,Wunderground v.1.15,2013-04-01 22:11:00,
2013-04-01 15:20:00,55.0,53.6,30.14,NE,41,0.0,0.0,95,0.00,,,0.02,Wunderground v.1.15,2013-04-01 22:20:00,
2013-04-01 15:25:00,55.3,53.3,30.14,WNW,292,0.0,3.0,93,0.00,,,0.02,Wunderground v.1.15,2013-04-01 22:25:00,
2013-04-01 15:35:00,55.2,52.6,30.14,WNW,303,3.0,3.0,91,0.00,,,0.02,Wunderground v.1.15,2013-04-01 22:35:00,
2013-04-01 15:45:00,55.6,53.3,30.15,West,271,1.0,1.0,92,0.00,,,0.02,Wunderground v.1.15,2013-04-01 22:45:00,
2013-04-01 15:50:00,55.8,52.9,30.14,WNW,287,1.0,1.0,90,0.00,,,0.02,Wunderground v.1.15,2013-04-01 22:50:00,
2013-04-01 15:55:00,55.9,52.7,30.15,South,190,0.0,0.0,89,0.00,,,0.02,Wunderground v.1.15,2013-04-01 22:55:00,
2013-04-01 16:05:00,56.1,52.9,30.14,North,360,1.0,1.0,89,0.00,,,0.02,Wunderground v.1.15,2013-04-01 23:05:00,
2013-04-01 16:15:00,56.1,52.9,30.14,WNW,287,2.0,4.0,89,0.00,,,0.02,Wunderground v.1.15,2013-04-01 23:15:00,
2013-04-01 16:20:00,56.3,53.4,30.14,North,5,1.0,1.0,90,0.00,,,0.02,Wunderground v.1.15,2013-04-01 23:20:00,
2013-04-01 16:30:00,56.8,53.6,30.14,NW,317,2.0,2.0,89,0.00,,,0.02,Wunderground v.1.15,2013-04-01 23:30:00,
2013-04-01 16:35:00,56.8,53.0,30.14,NW,313,1.0,2.0,87,0.00,,,0.02,Wunderground v.1.15,2013-04-01 23:35:00,
2013-04-01 16:40:00,56.7,53.5,30.14,North,349,2.0,2.0,89,0.00,,,0.02,Wunderground v.1.15,2013-04-01 23:40:00,
2013-04-01 16:50:00,56.8,53.3,30.14,WNW,289,2.0,4.0,88,0.00,,,0.02,Wunderground v.1.15,2013-04-01 23:50:00,
2013-04-01 17:05:00,56.4,52.6,30.14,NNW,336,3.0,3.0,87,0.00,,,0.02,Wunderground v.1.15,2013-04-02 00:05:00,
2013-04-01 17:10:00,56.4,52.9,30.14,NW,309,3.0,6.0,88,0.00,,,0.02,Wunderground v.1.15,2013-04-02 00:10:00,
2013-04-01 17:20:00,56.8,53.3,30.14,WNW,287,2.0,4.0,88,0.00,,,0.02,Wunderground v.1.15,2013-04-02 00:20:00,
2013-04-01 17:30:00,56.7,52.9,30.14,WSW,238,2.0,3.0,87,0.00,,,0.02,Wunderground v.1.15,2013-04-02 00:30:00,
2013-04-01 17:40:00,56.4,52.9,30.14,NW,325,2.0,4.0,88,0.00,,,0.02,Wunderground v.1.15,2013-04-02 00:40:00,
2013-04-01 17:50:00,55.9,52.4,30.14,WNW,294,2.0,2.0,88,0.00,,,0.02,Wunderground v.1.15,2013-04-02 00:50:00,
2013-04-01 17:55:00,55.7,52.2,30.15,NW,320,1.0,2.0,88,0.00,,,0.02,Wunderground v.1.15,2013-04-02 00:55:00,
2013-04-01 18:05:00,55.3,51.8,30.14,NNE,28,1.0,1.0,88,0.00,,,0.02,Wunderground v.1.15,2013-04-02 01:05:00,
2013-04-01 18:10:00,55.1,51.6,30.15,WNW,292,2.0,2.0,88,0.00,,,0.02,Wunderground v.1.15,2013-04-02 01:10:00,
2013-04-01 18:20:00,54.9,51.7,30.15,NW,310,2.0,2.0,89,0.00,,,0.02,Wunderground v.1.15,2013-04-02 01:20:00,
2013-04-01 18:30:00,54.3,50.8,30.15,North,360,3.0,3.0,88,0.00,,,0.02,Wunderground v.1.15,2013-04-02 01:30:00,
2013-04-01 18:40:00,53.9,51.0,30.15,WNW,290,3.0,3.0,90,0.00,,,0.02,Wunderground v.1.15,2013-04-02 01:40:00,
2013-04-01 18:50:00,53.7,50.5,30.15,WSW,240,2.0,2.0,89,0.00,,,0.02,Wunderground v.1.15,2013-04-02 01:50:00,
2013-04-01 18:55:00,53.5,50.6,30.15,WSW,252,2.0,2.0,90,0.00,,,0.02,Wunderground v.1.15,2013-04-02 01:55:00,
2013-04-01 19:05:00,53.2,50.3,30.16,West,260,1.0,2.0,90,0.00,,,0.02,Wunderground v.1.15,2013-04-02 02:05:00,
2013-04-01 19:11:00,53.1,50.5,30.16,NW,323,2.0,3.0,91,0.00,,,0.02,Wunderground v.1.15,2013-04-02 02:11:00,
2013-04-01 19:20:00,52.8,50.2,30.16,NW,321,1.0,1.0,91,0.00,,,0.02,Wunderground v.1.15,2013-04-02 02:20:00,
2013-04-01 19:25:00,52.6,50.0,30.16,NW,321,0.0,0.0,91,0.00,,,0.02,Wunderground v.1.15,2013-04-02 02:25:00,
2013-04-01 19:35:00,52.2,49.7,30.16,NW,306,0.0,0.0,91,0.00,,,0.02,Wunderground v.1.15,2013-04-02 02:35:00,
2013-04-01 19:45:00,51.9,49.6,30.16,North,355,0.0,0.0,92,0.00,,,0.02,Wunderground v.1.15,2013-04-02 02:45:00,
2013-04-01 19:50:00,51.7,49.5,30.16,North,355,0.0,0.0,92,0.00,,,0.02,Wunderground v.1.15,2013-04-02 02:50:00,
2013-04-01 20:05:00,51.2,49.2,30.16,WNW,284,0.0,0.0,93,0.00,,,0.02,Wunderground v.1.15,2013-04-02 03:05:00,
2013-04-01 20:10:00,51.1,49.1,30.16,WNW,284,0.0,0.0,93,0.00,,,0.02,Wunderground v.1.15,2013-04-02 03:10:00,
2013-04-01 20:25:00,50.5,48.8,30.16,West,273,0.0,0.0,94,0.00,,,0.02,Wunderground v.1.15,2013-04-02 03:25:00,
2013-04-01 20:30:00,50.3,48.6,30.17,West,273,0.0,0.0,94,0.00,,,0.02,Wunderground v.1.15,2013-04-02 03:30:00,
2013-04-01 20:36:00,50.1,48.4,30.17,West,273,0.0,0.0,94,0.00,,,0.02,Wunderground v.1.15,2013-04-02 03:36:00,
2013-04-01 20:45:00,49.9,48.5,30.17,West,273,0.0,0.0,95,0.00,,,0.02,Wunderground v.1.15,2013-04-02 03:45:00,
2013-04-01 20:55:00,49.9,48.8,30.17,West,275,0.0,0.0,96,0.00,,,0.02,Wunderground v.1.15,2013-04-02 03:55:00,
2013-04-01 21:05:00,49.8,48.7,30.18,West,275,0.0,0.0,96,0.00,,,0.02,Wunderground v.1.15,2013-04-02 04:05:00,
2013-04-01 21:10:00,49.8,48.7,30.18,West,275,0.0,0.0,96,0.00,,,0.02,Wunderground v.1.15,2013-04-02 04:10:00,
2013-04-01 21:20:00,49.7,48.6,30.18,WSW,248,0.0,0.0,96,0.00,,,0.02,Wunderground v.1.15,2013-04-02 04:20:00,
2013-04-01 21:25:00,49.7,48.6,30.18,WSW,248,0.0,0.0,96,0.00,,,0.02,Wunderground v.1.15,2013-04-02 04:25:00,
2013-04-01 21:35:00,49.8,48.7,30.18,SW,234,0.0,0.0,96,0.00,,,0.02,Wunderground v.1.15,2013-04-02 04:35:00,
2013-04-01 21:40:00,49.8,48.7,30.18,SW,234,0.0,0.0,96,0.00,,,0.02,Wunderground v.1.15,2013-04-02 04:40:00,
2013-04-01 21:50:00,49.9,48.8,30.18,SW,234,0.0,0.0,96,0.00,,,0.02,Wunderground v.1.15,2013-04-02 04:50:00,
2013-04-01 21:55:00,49.9,48.8,30.18,SW,234,0.0,0.0,96,0.00,,,0.02,Wunderground v.1.15,2013-04-02 04:55:00,
2013-04-01 22:05:00,49.9,48.8,30.18,SW,234,0.0,0.0,96,0.00,,,0.02,Wunderground v.1.15,2013-04-02 05:05:00,
2013-04-01 22:15:00,50.0,48.9,30.18,SW,234,0.0,0.0,96,0.00,,,0.02,Wunderground v.1.15,2013-04-02 05:15:00,
2013-04-01 22:25:00,50.0,48.9,30.18,SW,234,0.0,0.0,96,0.00,,,0.02,Wunderground v.1.15,2013-04-02 05:25:00,
2013-04-01 22:35:00,50.0,48.9,30.18,SW,234,0.0,0.0,96,0.00,,,0.02,Wunderground v.1.15,2013-04-02 05:35:00,
2013-04-01 22:45:00,50.0,48.9,30.18,SW,234,0.0,0.0,96,0.00,,,0.02,Wunderground v.1.15,2013-04-02 05:45:00,
2013-04-01 22:55:00,50.0,48.9,30.18,SW,234,0.0,0.0,96,0.00,,,0.02,Wunderground v.1.15,2013-04-02 05:55:00,
2013-04-01 23:05:00,50.0,48.9,30.18,SW,234,0.0,0.0,96,0.00,,,0.02,Wunderground v.1.15,2013-04-02 06:05:00,
2013-04-01 23:10:00,50.0,48.9,30.17,SW,234,0.0,0.0,96,0.00,,,0.02,Wunderground v.1.15,2013-04-02 06:10:00,
2013-04-01 23:20:00,50.0,48.9,30.17,SW,234,0.0,0.0,96,0.00,,,0.02,Wunderground v.1.15,2013-04-02 06:20:00,
2013-04-01 23:30:00,50.0,48.9,30.17,SW,234,0.0,0.0,96,0.00,,,0.02,Wunderground v.1.15,2013-04-02 06:30:00,
2013-04-01 23:45:00,50.0,49.2,30.18,SW,234,0.0,0.0,97,0.00,,,0.02,Wunderground v.1.15,2013-04-02 06:45:00,
2013-04-01 23:55:00,50.0,48.9,30.18,SW,234,0.0,0.0,96,0.00,,,0.02,Wunderground v.1.15,2013-04-02 06:55:00,